Presure
213 270 256 227 232 238 245 232 194 219 191 193 193 193 190 191 187 189 189 187 187 183 184 195 225 205 188 178 172 162 160 159 150 161 159 153 153 151 150 144 138 134 147
230 280 310 208 280 223 229 227 228 226 234 241 260 261 241 189 188 182 180 192 207 193 211 217 197 178 171 166 162 156 149 163 156 157 150 143 151 145 142 150 147 138 129
208 199 278 250 210 209 213 214 217 217 221 223 252 265 258 253 256 256 259 195 238 224 203 181 174 170 160 155 154 158 159 154 149 148 158 149 147 146 144 137 139 144 139
209 196 191 202 204 207 208 207 207 208 211 213 216 209 244 215 252 240 239 225 209 189 176 170 165 161 153 158 159 153 151 153 157 148 135 144 122 127 150 135 131 145 152
226 221 223 194 189 206 200 199 205 206 207 207 213 228 234 229 226 224 210 187 175 169 167 161 155 158 160 161 159 133 143 140 129 142 131 124 148 140 151 150 149 140 141
217 217 214 214 228 230 234 222 223 221 227 225 223 222 221 218 198 182 175 171 168 161 154 158 143 162 163 151 159 148 151 137 131 155 133 145 146 155 156 144 145 130 141
190 217 112 218 217 215 219 213 213 214 215 216 219 123 182 176 170 165 163 160 158 164 163 164 87 153 159 125 165 144 144 133 147 143 153 145 151 154 143 128 149 145 154
141 187 210 212 192 214 185 129 185 185 99 191 178 174 169 162 163 162 147 159 166 163 141 156 152 120 143 126 141 146 144 154 151 129 154 141 155 141 144 147 142 151 142
209 202 207 209 209 207 176 174 162 181 163 166 161 143 125 164 165 166 119 155 162 136 131 125 144 132 143 132 144 160 136 136 140 151 127 143 147 150 144 151 145 140 144
189 201 209 206 129 197 189 174 108 170 168 133 112 152 158 161 167 143 123 121 130 122 110 148 149 138 150 161 149 146 134 151 154 150 149 142 147 150 148 140 141 141 142
199 207 140 124 99 173 155 98 162 170 170 162 107 169 167 114 126 97 159 120 153 153 154 151 149 158 152 149 141 153 153 159 145 143 135 151 160 147 140 149 143 134 154
206 207 182 153 99 173 172 146 138 169 167 148 143 114 136 150 97 164 153 121 127 140 144 136 143 148 149 136 162 159 153 141 148 153 148 161 139 145 151 139 154 158 154
206 202 201 180 181 160 163 132 168 165 168 173 154 82 165 136 109 129 158 138 136 157 154 145 153 147 138 161 159 139 143 150 155 153 152 144 149 143 149 162 153 156 175
161 205 203 148 156 142 169 172 158 128 158 155 153 147 147 111 119 117 150 141 127 152 164 156 147 133 158 155 135 131 150 143 162 133 146 156 145 152 162 155 160 157 187
129 147 166 203 157 158 156 133 144 156 158 156 116 128 152 115 132 157 122 151 142 150 154 141 157 155 151 138 132 151 139 156 147 148 159 149 159 151 160 161 161 179 168
179 212 126 208 105 159 162 163 160 157 161 145 137 113 148 158 159 157 155 133 141 151 163 150 152 142 149 132 147 161 142 144 155 146 141 161 145 164 163 167 179 176 194
161 175 183 189 158 154 156 162 163 161 157 140 113 118 95 146 124 142 162 152 157 166 168 147 147 131 145 152 158 159 150 151 152 136 164 148 163 163 163 176 179 191 182
164 167 170 154 159 119 160 106 112 137 111 156 112 158 160 105 157 155 160 162 166 169 146 154 151 148 162 152 147 144 144 159 143 158 140 163 163 163 171 181 196 187 206
145 174 169 163 127 119 138 137 117 121 140 145 115 123 163 158 147 160 147 159 154 144 150 149 145 161 158 144 161 150 153 156 160 160 163 164 165 171 186 189 188 211 195
171 163 137 157 154 141 122 159 143 145 103 143 141 144 160 165 139 148 143 150 144 147 149 149 156 134 144 152 146 152 153 158 161 150 164 168 171 177 176 193 187 210 201
152 127 146 151 166 155 140 143 99 130 156 158 149 165 141 128 146 148 151 157 147 155 147 158 136 152 155 136 160 153 162 141 166 173 172 174 175 182 200 197 198 202 215
118 127 161 162 131 113 122 129 162 160 160 159 130 161 152 152 137 156 136 145 153 155 148 135 152 142 152 157 155 162 163 167 165 172 171 180 180 195 191 207 199 212 223
147 136 119 145 143 160 90 148 114 159 106 139 152 143 147 157 158 141 145 158 151 159 138 150 151 150 156 152 165 157 160 169 158 178 169 181 201 214 220 196 212 221 219
135 149 122 155 110 147 134 145 123 128 156 149 159 137 147 165 161 145 144 154 157 160 159 144 162 153 157 160 144 162 166 153 173 177 177 214 213 184 211 201 213 220 254
131 110 150 158 115 133 152 147 154 150 154 150 147 167 137 142 144 160 153 160 160 167 153 164 164 159 155 147 168 163 176 173 181 200 189 199 181 203 219 200 219 212 234
144 144 144 157 146 157 152 153 145 133 149 154 139 153 167 154 157 160 156 168 148 161 158 148 172 143 170 164 157 173 172 181 195 161 188 208 196 211 234 212 207 229 226
Wind_Speed
41 21 31 36 36 37 39 41 43 43 46 47 48 49 49 48 46 43 40 39 38 37 36 34 20 19 21 25 27 31 34 35 38 34 34 37 37 38 40 44 48 52 47
23 3 2 24 15 27 27 29 31 32 34 35 32 32 34 41 39 36 36 37 35 32 26 18 19 24 26 28 32 36 38 34 36 35 38 41 39 45 45 44 46 50 59
27 18 5 12 23 26 24 26 25 28 29 28 25 26 28 28 26 25 23 30 23 20 18 21 25 27 32 35 36 36 35 36 38 39 37 41 42 44 45 49 50 52 54
18 23 18 19 20 21 23 24 24 24 24 24 24 25 24 24 20 21 21 20 18 19 23 26 30 32 35 35 35 36 37 38 39 40 44 44 55 54 47 53 60 59 61
8 11 8 18 18 19 21 21 21 20 19 19 19 17 17 17 18 19 18 18 22 25 27 31 33 33 34 34 36 42 41 42 47 45 48 55 48 49 52 55 58 61 67
9 9 11 11 10 11 13 15 16 16 15 15 15 16 17 17 18 18 21 23 25 28 31 32 33 32 33 36 37 41 44 47 50 48 52 50 54 57 59 58 61 73 71
23 10 9 9 11 12 12 14 15 15 15 15 16 13 18 20 22 24 26 27 28 29 30 30 32 35 36 43 40 44 47 48 51 51 54 55 57 59 57 68 70 72 79
11 24 14 14 11 13 18 14 11 12 22 21 20 21 22 23 25 26 24 25 27 28 31 33 35 39 42 46 47 47 50 52 54 54 58 60 60 59 65 70 72 79 80
19 21 19 18 19 20 12 15 10 22 18 22 23 19 22 27 27 26 31 29 29 32 36 40 39 43 45 50 49 51 52 51 57 60 66 57 63 69 69 78 77 80 89
22 24 22 22 15 26 26 26 23 25 26 21 26 25 27 29 28 29 33 35 34 40 48 42 44 45 48 50 51 52 52 60 63 64 60 63 70 77 73 74 81 86 91
28 26 18 22 20 26 21 26 24 26 27 26 31 28 28 30 31 44 32 42 37 39 41 44 47 49 51 52 52 59 62 65 54 58 60 75 84 75 73 90 90 88 109
30 29 27 23 22 29 29 25 25 28 28 29 29 31 31 31 45 30 34 47 43 42 45 46 50 54 56 51 65 66 63 55 66 74 74 85 73 79 92 88 106 111 105
32 33 35 34 35 25 27 29 29 30 29 30 31 36 31 37 50 42 40 44 45 49 51 53 57 57 58 67 69 52 60 70 75 77 78 76 85 85 102 107 104 106 124
26 35 37 28 30 31 31 34 33 33 33 35 36 38 39 49 47 49 46 46 47 54 55 59 61 60 67 67 55 58 73 65 85 68 79 94 90 104 110 104 112 106 130
36 34 33 42 32 33 35 36 36 37 37 39 46 42 42 46 46 49 49 53 52 57 60 60 68 70 68 59 61 77 69 81 80 81 97 95 108 99 112 117 111 128 113
36 36 40 43 34 37 39 41 42 42 43 41 47 51 47 49 52 53 56 55 55 59 65 66 68 62 73 62 76 85 75 79 93 86 82 109 96 117 120 125 130 126 140
43 38 38 41 42 41 42 45 46 46 46 48 55 49 55 54 54 59 61 60 65 67 69 63 69 68 74 80 84 91 88 88 96 80 110 101 117 118 122 131 135 138 130
47 46 45 47 47 46 48 48 49 47 55 52 58 57 57 68 60 62 66 68 70 71 67 77 77 77 89 83 82 81 81 105 87 107 85 120 119 123 131 137 140 133 132
48 50 50 51 48 49 50 51 47 52 57 55 63 61 63 63 62 67 66 72 73 71 76 77 76 89 90 85 101 94 100 108 111 112 118 122 124 130 140 136 137 139 133
53 56 52 55 54 53 55 57 55 58 44 62 62 64 66 67 64 70 71 76 74 78 81 84 87 78 81 94 92 99 105 110 113 106 123 127 129 138 135 138 124 139 139
56 57 56 57 60 59 61 60 61 62 64 66 67 68 67 65 71 75 80 83 78 87 83 93 75 94 100 78 109 102 116 91 125 129 130 133 135 143 139 138 137 141 144
57 59 66 66 61 65 66 64 68 70 70 70 65 73 75 78 70 83 73 80 88 91 85 77 97 87 102 109 109 119 115 126 128 131 130 136 139 140 135 144 143 142 145
65 62 63 65 68 70 37 70 75 75 76 71 76 74 76 82 85 82 85 93 90 97 82 95 100 101 110 108 114 110 116 126 117 138 128 141 141 138 134 139 139 145 148
70 73 61 76 51 72 72 75 76 70 79 79 83 78 82 89 90 88 90 95 100 103 106 94 110 108 112 115 94 124 130 102 133 137 139 135 135 130 136 134 143 148 143
71 70 79 82 76 74 82 81 83 83 84 82 84 90 80 88 89 99 99 106 108 113 104 114 116 112 102 96 129 120 133 134 139 137 132 138 126 140 140 135 146 144 146
80 80 79 86 82 87 88 91 89 84 87 92 81 91 99 98 102 106 96 106 104 114 113 101 123 92 125 122 113 131 131 138 135 110 133 142 138 142 143 144 144 142 146
Wind_Direction
263 251 259 259 251 247 246 241 241 242 245 248 251 251 251 253 255 257 259 260 261 262 265 270 248 251 257 261 262 264 269 272 279 280 281 281 285 287 287 287 289 290 291
251 4 73 249 205 232 234 234 234 240 246 247 244 244 244 251 252 252 253 258 262 261 253 232 240 248 253 257 261 266 276 278 278 282 283 289 291 291 291 293 294 291 288
258 263 72 228 227 226 221 226 227 233 238 241 238 229 231 234 235 236 230 251 227 224 226 237 242 248 258 264 269 271 274 277 281 284 290 291 293 293 294 292 294 296 292
242 258 241 228 222 219 217 221 226 232 236 237 236 238 232 236 216 218 216 213 208 221 233 242 247 255 266 267 270 273 279 283 286 288 295 295 297 296 301 292 289 301 306
222 218 217 221 221 219 223 223 223 227 230 231 226 216 209 206 207 204 197 210 224 235 241 252 261 264 268 274 278 293 282 285 300 293 296 294 303 298 306 306 305 297 298
208 212 210 208 185 188 194 208 207 210 208 206 201 197 194 189 188 206 217 229 237 249 261 262 276 271 276 278 282 281 291 295 296 295 296 303 303 305 308 300 304 289 297
238 208 286 198 194 195 195 199 198 197 195 194 188 298 193 204 216 227 238 248 254 253 261 268 307 272 277 299 285 289 290 294 297 297 301 305 307 308 303 292 309 308 311
254 239 198 194 201 188 212 272 215 219 307 178 196 205 218 236 240 243 271 264 258 264 293 275 274 293 290 297 292 292 295 295 299 295 301 302 306 305 310 312 305 309 302
213 212 203 197 189 184 207 198 217 192 218 222 235 262 300 236 241 246 310 264 263 294 298 300 292 292 290 298 293 293 296 299 297 305 293 307 309 313 309 311 307 300 307
226 213 209 203 283 188 192 211 309 220 225 287 309 257 253 252 251 278 304 306 299 302 312 284 287 296 292 294 298 297 299 304 303 304 306 308 315 313 309 305 306 304 305
223 216 265 285 291 227 252 294 242 234 234 254 315 250 254 299 295 328 275 303 282 285 287 289 291 290 294 300 302 299 296 300 312 311 302 313 312 311 306 312 309 299 308
227 224 224 243 289 234 235 267 279 248 250 269 279 303 295 286 327 278 287 304 297 295 293 298 298 298 300 305 298 300 308 309 311 313 315 313 307 313 309 304 312 310 309
232 228 221 229 227 255 253 287 253 260 260 255 268 304 271 290 309 301 285 295 299 290 293 298 295 296 297 294 296 309 314 313 312 312 317 309 317 313 314 312 310 312 314
246 231 229 254 250 264 254 254 261 282 269 271 272 278 279 303 297 301 286 294 304 291 291 292 300 299 296 301 305 302 315 311 310 303 314 315 318 314 313 313 315 313 319
267 264 249 234 254 257 261 274 271 268 270 275 297 288 281 301 295 284 301 292 297 296 295 305 294 296 301 307 302 312 309 312 315 317 314 317 314 313 314 317 315 319 319
249 242 273 240 302 260 261 263 266 270 270 277 284 294 284 282 283 285 288 295 302 296 289 294 298 305 308 304 315 304 315 318 315 317 311 314 311 316 317 318 319 320 319
258 245 245 249 263 264 265 264 266 268 272 280 289 294 309 292 296 295 286 292 290 287 287 299 309 301 312 307 307 309 317 316 315 305 313 314 317 318 318 320 320 319 320
258 256 252 265 263 277 262 294 283 279 289 277 292 279 280 303 285 289 288 288 288 288 309 298 306 310 299 312 316 311 315 311 313 315 306 317 318 318 319 317 318 319 323
262 255 255 260 273 276 277 279 282 281 278 283 293 297 277 283 291 286 292 288 292 309 303 306 311 300 305 316 305 314 313 313 313 315 316 316 317 318 317 318 319 323 323
249 258 268 268 268 272 288 271 279 282 301 280 287 285 280 278 301 293 300 295 307 306 304 305 302 307 307 311 315 313 314 314 315 313 315 317 318 319 319 319 320 323 322
262 271 267 265 260 268 276 273 302 286 277 275 286 276 296 295 296 297 296 291 306 299 308 300 302 310 310 300 307 314 311 310 312 314 315 315 318 317 318 319 322 322 323
280 269 261 261 274 282 280 281 270 273 275 277 290 277 288 289 301 288 303 308 300 301 307 300 308 309 310 312 313 308 308 311 312 314 316 316 316 315 318 320 321 321 325
267 269 274 272 272 268 306 279 281 275 292 290 286 293 291 286 285 301 299 292 304 299 299 305 304 308 308 308 305 308 310 311 315 313 315 314 315 317 320 318 320 324 326
270 270 280 267 279 278 280 280 286 290 280 284 282 289 294 282 284 292 302 298 300 295 296 305 301 304 306 307 306 310 311 311 312 313 313 316 317 315 320 319 324 324 323
268 274 269 269 279 280 280 282 281 283 282 284 289 280 293 297 298 289 299 294 295 294 304 301 302 306 302 308 307 309 310 310 311 312 312 316 315 317 323 321 324 324 325
271 273 274 272 279 276 281 281 285 283 287 288 292 291 281 295 293 292 289 288 299 298 299 304 300 303 302 305 309 307 308 308 309 311 314 316 316 321 322 323 323 322 323